Torna al catalogo

RADUGA 4

AttivoMilitareGEO
NORAD 10987·PAYLOAD·🇷🇺 Russia

Lanciato Jul 18, 1978 da Baikonur Cosmodrome

Loading…

TLE

AggiornatoSource: Space-Track

Epoca: Sep 14, 2026, 14:07 UTC

1 10987U 78073A   26257.58827440 -.00000002  00000-0  00000-0 0  9993
2 10987   4.5648 277.5206 0010691  30.5701 323.7767  1.00194947120492

Traccia RADUGA 4 in tempo reale con AllMySat

Download on the App Store